{"data":{"norad_id":57616,"intl_designator":"2023-119Q","name":"STARLINK-30075","alt_names":[],"object_type":"PAYLOAD","status":"ACTIVE","operator":null,"country":"US","launch_date":"2023-08-11","launch_site_code":"AFETR","launch_vehicle":null,"mission":null,"orbit_class":"UNKNOWN","rcs_meters":null,"size_class":null,"mass_kg":null,"dimensions":null,"purposes":["comms"],"wikipedia_slug":null,"has_3d_model":false,"image_url":null,"decayed_at":null,"tle_current":{"epoch":"2026-05-24T22:44:35.497248Z","epoch_age_seconds":76799,"freshness":"FRESH","line1":"1 57616U 23119Q   26144.94763307 -.00000577  00000+0 -11438-4 0  9998","line2":"2 57616  43.0070  10.5270 0001333 238.6152 121.4570 15.27579682154757","mean_motion":15.27579682,"eccentricity":0.0001333,"inclination_deg":43.007,"raan_deg":10.527,"arg_perigee_deg":238.6152,"mean_anomaly_deg":121.457,"bstar":-1.1438e-5,"rev_number":15475,"period_min":94.266768337391,"perigee_km":482.13545201269,"apogee_km":483.96464447975,"semimajor_km":6861.1870482462,"source":"CELESTRAK","updated_at":"2026-05-25T13:38:18.359170Z"}}}